AXI752 KAPC-KSAV

Flight info

Callsign AXI752
Flight time N/A
Altitude 41000
Route OZIEE4 OZIEE WAVED MVA TABLL MTJ PUB ARG IRQ FIBRO FLYNT PLZZZ
Aircraft C750/M-SBDE3FGHRWXY/S

Departure

Time 2026-04-26 21:33
Airport Napa County Airport (KAPC)

Arrival

Time N/A
Airport Savannah Hilton Head International Airport (KSAV)
Time Latitude Longitude Altitude Speed Heading
2026-04-26 21:22 38.21677 -122.27337 18 ft 0 kts 52°
2026-04-26 21:30 38.21681 -122.27337 17 ft 2 kts
2026-04-26 21:30 38.21698 -122.27361 18 ft 6 kts 303°
2026-04-26 21:30 38.21680 -122.27423 17 ft 13 kts 239°
2026-04-26 21:30 38.21651 -122.27508 17 ft 17 kts 262°
2026-04-26 21:31 38.21722 -122.27572 15 ft 12 kts 332°
2026-04-26 21:31 38.21807 -122.27626 14 ft 16 kts 334°
2026-04-26 21:31 38.21815 -122.27718 13 ft 16 kts 268°
2026-04-26 21:31 38.21862 -122.27888 13 ft 20 kts 291°
2026-04-26 21:32 38.21892 -122.28002 22 ft 4 kts 247°
2026-04-26 21:32 38.21879 -122.28011 20 ft 0 kts 200°
2026-04-26 21:32 38.21740 -122.28077 20 ft 64 kts 201°
2026-04-26 21:32 38.21049 -122.28409 42 ft 134 kts 201°
2026-04-26 21:33 38.20181 -122.28885 364 ft 133 kts 207°
2026-04-26 21:33 38.19416 -122.29543 385 ft 143 kts 230°
2026-04-26 21:33 38.19035 -122.30870 580 ft 179 kts 263°
2026-04-26 21:33 38.19241 -122.32558 798 ft 201 kts 280°
2026-04-26 21:34 38.19608 -122.34256 951 ft 208 kts 285°
2026-04-26 21:34 38.20114 -122.36119 1399 ft 230 kts 289°
2026-04-26 21:34 38.20796 -122.37965 2127 ft 234 kts 296°
2026-04-26 21:34 38.21994 -122.39472 2739 ft 251 kts 324°
2026-04-26 21:35 38.23645 -122.40224 3664 ft 261 kts 349°
2026-04-26 21:35 38.25466 -122.40293 4593 ft 262 kts 356°
2026-04-26 21:35 38.27291 -122.40351 5491 ft 264 kts 354°
2026-04-26 21:35 38.29137 -122.40502 6377 ft 267 kts 353°
2026-04-26 21:36 38.31004 -122.40656 7240 ft 270 kts 354°
2026-04-26 21:36 38.32259 -122.40600 7792 ft 275 kts
2026-04-26 21:36 38.34812 -122.40265 9094 ft 277 kts
2026-04-26 21:36 38.36751 -122.40052 9928 ft 281 kts
2026-04-26 21:37 38.38737 -122.39840 10390 ft 297 kts
2026-04-26 21:37 38.40892 -122.39599 10453 ft 325 kts
2026-04-26 21:37 38.43228 -122.39328 10598 ft 346 kts
2026-04-26 21:37 38.45619 -122.39034 11341 ft 345 kts
2026-04-26 21:38 38.47918 -122.38138 11822 ft 359 kts 25°
2026-04-26 21:38 38.49907 -122.36192 12487 ft 367 kts 44°
2026-04-26 21:38 38.51312 -122.33442 13098 ft 374 kts 60°
2026-04-26 21:38 38.52486 -122.30456 13707 ft 378 kts 62°
2026-04-26 21:39 38.53433 -122.27296 14129 ft 387 kts 77°
2026-04-26 21:39 38.53638 -122.23866 14754 ft 388 kts 87°
2026-04-26 21:39 38.53703 -122.20399 15269 ft 392 kts 88°
2026-04-26 21:39 38.53774 -122.16901 15823 ft 396 kts 88°
2026-04-26 21:40 38.53868 -122.13376 16397 ft 399 kts 87°
2026-04-26 21:40 38.53961 -122.09819 16973 ft 403 kts 87°
2026-04-26 21:40 38.54041 -122.06226 17538 ft 406 kts 88°
2026-04-26 21:40 38.54119 -122.02602 18115 ft 410 kts 88°
2026-04-26 21:41 38.54205 -121.98944 18643 ft 414 kts 88°
2026-04-26 21:41 38.54292 -121.95257 19173 ft 417 kts 88°
2026-04-26 21:41 38.54374 -121.91533 19685 ft 422 kts 88°
2026-04-26 21:41 38.54455 -121.87772 20227 ft 425 kts 88°
2026-04-26 21:42 38.54536 -121.83980 20757 ft 429 kts 88°
2026-04-26 21:42 38.54619 -121.80149 21265 ft 434 kts 88°
2026-04-26 21:42 38.54673 -121.77593 21618 ft 436 kts 88°
2026-04-26 21:42 38.54753 -121.73704 22141 ft 440 kts 88°
2026-04-26 21:43 38.54858 -121.68494 22812 ft 445 kts 88°
2026-04-26 21:43 38.54938 -121.64523 23316 ft 449 kts 88°
2026-04-26 21:43 38.55017 -121.60519 23766 ft 453 kts 88°
2026-04-26 21:43 38.55095 -121.56485 24204 ft 456 kts 88°
2026-04-26 21:44 38.55146 -121.53744 24500 ft 458 kts 88°
2026-04-26 21:44 38.55222 -121.49667 24953 ft 460 kts 88°
2026-04-26 21:44 38.55298 -121.45563 25395 ft 463 kts 88°
2026-04-26 21:44 38.55372 -121.41432 25822 ft 466 kts 89°
2026-04-26 21:45 38.55445 -121.37278 26251 ft 469 kts 89°
2026-04-26 21:45 38.55518 -121.33097 26651 ft 473 kts 89°
2026-04-26 21:45 38.55589 -121.28878 27020 ft 477 kts 89°
2026-04-26 21:45 38.55660 -121.24627 27460 ft 480 kts 89°
2026-04-26 21:46 38.55728 -121.20407 27925 ft 483 kts 89°
2026-04-26 21:46 38.55796 -121.16110 28367 ft 486 kts 89°
2026-04-26 21:46 38.55863 -121.11779 28797 ft 489 kts 89°
2026-04-26 21:46 38.55929 -121.07417 29233 ft 492 kts 89°
2026-04-26 21:47 38.55994 -121.03026 29675 ft 496 kts 89°
2026-04-26 21:47 38.56057 -120.98609 30083 ft 499 kts 89°
2026-04-26 21:47 38.56119 -120.94162 30438 ft 502 kts 89°
2026-04-26 21:47 38.56181 -120.89695 30825 ft 504 kts 89°
2026-04-26 21:48 38.56239 -120.85211 31282 ft 504 kts 89°
2026-04-26 21:48 38.56297 -120.80734 31793 ft 504 kts 89°
2026-04-26 21:48 38.56353 -120.76263 32265 ft 504 kts 89°
2026-04-26 21:48 38.56407 -120.71787 32750 ft 504 kts 89°
2026-04-26 21:49 38.56459 -120.67303 33238 ft 504 kts 89°
2026-04-26 21:49 38.56510 -120.62826 33721 ft 504 kts 90°
2026-04-26 21:49 38.56559 -120.58348 34175 ft 504 kts 90°
2026-04-26 21:49 38.56606 -120.53866 34605 ft 504 kts 90°
2026-04-26 21:50 38.56651 -120.49394 35052 ft 503 kts 90°
2026-04-26 21:50 38.56695 -120.44928 35495 ft 502 kts 90°
2026-04-26 21:50 38.56736 -120.40530 35942 ft 501 kts 90°
2026-04-26 21:50 38.56777 -120.36078 36409 ft 501 kts 90°
2026-04-26 21:51 38.56815 -120.31638 36883 ft 500 kts 90°
2026-04-26 21:51 38.56852 -120.27195 37333 ft 499 kts 90°
2026-04-26 21:51 38.56887 -120.22764 37811 ft 498 kts 90°
2026-04-26 21:51 38.56920 -120.18334 38290 ft 498 kts 90°
2026-04-26 21:52 38.56952 -120.13915 38714 ft 497 kts 90°
2026-04-26 21:52 38.56982 -120.09498 39078 ft 497 kts 90°
2026-04-26 21:52 38.57010 -120.05075 39352 ft 499 kts 90°
2026-04-26 21:52 38.57036 -120.00646 39708 ft 499 kts 90°
2026-04-26 21:53 38.57062 -119.96210 40103 ft 499 kts 90°
2026-04-26 21:53 38.57085 -119.91783 40463 ft 498 kts 90°
2026-04-26 21:53 38.57107 -119.87355 40823 ft 498 kts 90°
2026-04-26 21:53 38.57126 -119.82895 40877 ft 506 kts 91°
2026-04-26 21:54 38.57162 -119.73745 40855 ft 524 kts 90°
2026-04-26 21:54 38.57192 -119.64297 40817 ft 539 kts 90°
2026-04-26 21:55 38.57215 -119.54633 40791 ft 546 kts 91°
2026-04-26 21:55 38.57230 -119.44944 40763 ft 544 kts 91°
2026-04-26 21:56 38.57236 -119.35284 40744 ft 544 kts 91°
2026-04-26 21:56 38.57235 -119.25619 40749 ft 544 kts 91°
2026-04-26 21:57 38.57226 -119.15950 40726 ft 544 kts 91°
2026-04-26 21:57 38.57209 -119.06249 40746 ft 546 kts 91°
2026-04-26 21:58 38.57183 -118.96534 40784 ft 547 kts 91°
2026-04-26 21:58 38.57150 -118.86858 40823 ft 547 kts 91°
2026-04-26 21:59 38.57108 -118.77117 40852 ft 547 kts 91°
2026-04-26 21:59 38.57060 -118.67416 40844 ft 545 kts 92°
2026-04-26 22:00 38.57001 -118.57712 40848 ft 547 kts 92°
2026-04-26 22:00 38.56936 -118.47970 40844 ft 549 kts 92°
2026-04-26 22:01 38.56862 -118.38226 40812 ft 549 kts 92°
2026-04-26 22:01 38.56780 -118.28468 40805 ft 550 kts 92°
2026-04-26 22:02 38.56690 -118.18696 40792 ft 550 kts 92°
2026-04-26 22:02 38.56591 -118.08929 40789 ft 549 kts 92°
2026-04-26 22:03 38.56663 -117.99177 40801 ft 549 kts 88°
2026-04-26 22:03 38.57120 -117.89431 40804 ft 550 kts 88°
2026-04-26 22:04 38.57470 -117.79669 40809 ft 550 kts 88°
2026-04-26 22:04 38.57873 -117.69913 40807 ft 550 kts 88°
2026-04-26 22:05 38.58233 -117.60150 40806 ft 550 kts 88°
2026-04-26 22:05 38.58602 -117.50377 40796 ft 550 kts 88°
2026-04-26 22:06 38.58958 -117.40596 40801 ft 551 kts 89°
2026-04-26 22:06 38.59303 -117.30882 40790 ft 550 kts 89°
2026-04-26 22:07 38.59645 -117.21107 40785 ft 550 kts 89°
2026-04-26 22:07 38.59975 -117.11328 40793 ft 551 kts 89°
2026-04-26 22:08 38.60300 -117.01544 40788 ft 551 kts 89°
2026-04-26 22:08 38.60615 -116.91752 40783 ft 551 kts 89°
2026-04-26 22:09 38.60924 -116.81964 40769 ft 551 kts 89°
2026-04-26 22:09 38.61222 -116.72169 40766 ft 552 kts 89°
2026-04-26 22:10 38.61515 -116.62362 40765 ft 551 kts 89°
2026-04-26 22:10 38.61798 -116.52556 40751 ft 551 kts 89°
2026-04-26 22:11 38.62073 -116.42768 40742 ft 551 kts 89°
2026-04-26 22:11 38.62341 -116.32970 40733 ft 551 kts 89°
2026-04-26 22:12 38.62599 -116.23184 40724 ft 551 kts 90°
2026-04-26 22:12 38.62849 -116.13388 40723 ft 552 kts 90°
2026-04-26 22:13 38.63092 -116.03581 40724 ft 551 kts 90°
2026-04-26 22:13 38.63325 -115.93841 40718 ft 551 kts 90°
2026-04-26 22:14 38.63552 -115.84033 40721 ft 551 kts 90°
2026-04-26 22:14 38.63772 -115.74096 40717 ft 551 kts 90°
2026-04-26 22:15 38.63982 -115.64293 40720 ft 551 kts 90°
2026-04-26 22:15 38.64182 -115.54537 40727 ft 554 kts 90°
2026-04-26 22:16 38.64377 -115.44684 40732 ft 554 kts 90°
2026-04-26 22:16 38.64564 -115.34786 40731 ft 553 kts 90°
2026-04-26 22:17 38.64740 -115.25018 40729 ft 553 kts 90°
2026-04-26 22:17 38.64910 -115.15167 40734 ft 554 kts 90°
2026-04-26 22:18 38.65072 -115.05296 40742 ft 554 kts 91°
2026-04-26 22:18 38.65225 -114.95448 40742 ft 553 kts 91°
2026-04-26 22:19 38.65369 -114.85614 40741 ft 553 kts 91°